Weather Roundup
Issued by NWS Springfield, MO

Home | Current Version | Previous Version | Text Only | Print | Product List | Glossary On
Versions: 1 2 3 4 5 6 7 8 9 10 11 12 13 14 15 16 17 18 19 20 21 22 23 24 25 26 27 28 29 30 31 32 33 34 35 36 37 38 39 40 41 42 43 44 45 46 47 48 49 50
000
NZUS99 KSGF 230959
HRRSGF

HOURLY WEATHER
NATIONAL WEATHER SERVICE SPRINGFIELD MO
400 AM CST SUN NOV 23 2014

......SGF CWA......

CITY           SKY/WX    TMP DP  RH WIND       PRES   REMARKS
SPRINGFIELD    CLOUDY    54  51  90 SE15      29.65S
JOPLIN         CLOUDY    58  54  86 SE9       29.60F
WEST PLAINS    CLOUDY    53  48  83 SE9       29.74F
ROLLA          CLOUDY    52  46  80 SE10      29.69F
OSAGE BEACH    CLOUDY    54  48  82 SE7       29.68S

......SURROUNDING SGF CWA......

CITY           SKY/WX    TMP DP  RH WIND       PRES   REMARKS
CHANUTE        CLOUDY    55  54  96 S9        29.57F
PARSONS        CLOUDY    57  55  93 S10       29.58F
COFFEYVILLE    CLOUDY    56  54  93 S13       29.58S
EMPORIA        CLOUDY    54  53  97 S12G21    29.51F FOG
SILOAM SPRINGS CLOUDY    57  52  82 S12       29.64F
HARRISON AR    CLOUDY    56  53  90 SE13      29.67F
NEAR YELLVILLE CLOUDY    57  48  72 SE3       29.70F

......KANSAS AND MISSOURI......

CITY           SKY/WX    TMP DP  RH WIND       PRES   REMARKS
KANSAS CTY INT CLOUDY    53  51  93 SE12      29.57F
DOWNTOWN KC    CLOUDY    55  51  86 S7        29.58F
COLUMBIA       CLOUDY    54  50  86 SE13      29.66F
SEDALIA        LGT RAIN  56  51  84 S12       29.63F
ST JOSEPH      CLOUDY    54  51  90 S12       29.56F
ST LOUIS       CLOUDY    55  44  66 SE10      29.75F
SPIRIT OF STL  CLOUDY    54  44  69 SE5       29.73F
KIRKSVILLE     CLOUDY    53  50  89 S8        29.65F
WICHITA        CLOUDY    55  52  89 S13       29.47F
TOPEKA         CLOUDY    55  54  96 SE9       29.54F
OLATHE         CLOUDY    52  51  97 SE12      29.57F

......TENNESSEE......

CITY           SKY/WX    TMP DP  RH WIND       PRES   REMARKS
MEMPHIS        CLOUDY    60  53  77 SE9       29.79F
NASHVILLE      CLOUDY    54  39  57 E6        29.95F

......ARKANSAS.......

CITY           SKY/WX    TMP DP  RH WIND       PRES   REMARKS
FAYETTEVILLE   CLOUDY    57  54  89 S15G25    29.64F
FT SMITH       CLOUDY    55  53  93 E9        29.64F
LITTLE ROCK    LGT RAIN  57  53  86 SE15G28   29.71F

......OKLAHOMA.......

CITY           SKY/WX    TMP DP  RH WIND       PRES   REMARKS
TULSA          CLOUDY    56  55  97 SE10      29.57F
PONCA CITY     CLOUDY    57  53  86 S13G23    29.52F
MCALESTER      CLOUDY    60  57  89 S6        29.60F
OKLAHOMA CITY  CLOUDY    55  52  89 S14G24    29.53F

......IOWA............

CITY           SKY/WX    TMP DP  RH WIND       PRES   REMARKS
DES MOINES     CLOUDY    55  50  83 S12       29.57F
QUAD CITIES    CLOUDY    53  48  83 S16G23    29.68F

......ILLINOIS........

CITY           SKY/WX    TMP DP  RH WIND       PRES   REMARKS
QUINCY         CLOUDY    51  47  86 S9        29.69F
CHICAGO        MOCLDY    48  44  86 S13       29.77F




USA.gov is the U.S. government's official web portal to all federal, state and local government web resources and services.